Temp
1 0 -0 -1 -1 -1 -1 -1 -1 -2 -3 -3 -3 -3 -3 -3 -3 -2 -2 -3 -3 -3 -3 -2 -2 -2 -3 -3 -6 -3 -4 -4 -6 -7 -6 -7 -5 -1 -1 0 0 0 -0 -2 -1 -2 0 3 1 1 1 0 2 3
1 0 0 -0 -0 -1 -1 -1 -2 -3 -3 -3 -3 -3 -3 -3 -3 -3 -3 -3 -3 -4 -3 -3 -2 -2 -2 -2 -3 -3 -3 -4 -3 -8 -10 -8 -5 -3 -2 -4 2 -1 -2 -4 -0 -1 2 1 -1 -1 -0 1 3 3
1 1 1 1 1 0 -1 -2 -2 -3 -3 -3 -3 -3 -3 -3 -3 -3 -3 -3 -4 -4 -3 -3 -2 -1 -1 -1 -2 -3 -4 -3 -3 -2 -4 -6 -4 -4 -4 -2 -1 0 1 -1 -1 1 0 0 0 -0 2 2 2 3
1 1 1 1 0 -0 -1 -3 -3 -3 -3 -3 -3 -3 -3 -3 -3 -3 -3 -3 -4 -4 -6 -3 -1 -1 -1 -1 -1 -1 -2 -3 -3 -3 -2 -5 -4 -2 -4 -2 -2 -1 -0 -0 -1 -0 0 2 2 1 1 2 3 4
2 2 1 1 0 -0 -1 -3 -3 -3 -3 -3 -3 -3 -3 -3 -4 -4 -4 -4 -4 -4 -7 -5 -3 -0 -1 -1 -1 -2 -3 -4 -4 -3 -3 -4 -3 -3 -2 -2 -1 0 -0 -1 -0 0 -0 -0 0 1 -0 1 2 2
1 1 1 1 0 0 -1 -2 -3 -3 -3 -3 -4 -4 -3 -4 -4 -4 -3 -3 -3 -5 -5 -7 -3 -1 -1 -1 -2 -2 -2 -4 -4 -4 -4 -3 -2 -2 -4 -2 1 2 2 -0 -1 -2 -2 -1 1 1 1 1 2 3
1 1 1 0 -0 -1 -1 -1 -2 -3 -3 -3 -3 -4 -4 -4 -4 -4 -4 -3 -4 -4 -5 -6 -6 -2 -1 -1 -1 -1 -3 -4 -4 -4 -4 -3 -2 -2 -3 -2 0 1 1 0 -1 -1 0 1 0 1 1 1 2 3
0 0 0 0 0 -0 -1 -2 -2 -3 -3 -3 -3 -4 -4 -4 -5 -5 -4 -4 -4 -4 -5 -6 -5 -3 -1 -1 -1 -2 -3 -4 -4 -4 -3 -3 -2 -2 -3 0 1 1 -0 0 -0 -0 -0 -0 -0 0 0 0 2 2
0 -0 -0 -1 -1 -1 -1 -2 -3 -3 -4 -4 -4 -4 -4 -4 -5 -4 -4 -4 -5 -4 -5 -5 -3 -4 -2 -3 -3 -3 -3 -4 -3 -3 -3 -2 -2 -2 -0 0 -0 -1 -0 -1 -1 -1 -1 -1 -1 -0 -1 -0 -0 1
0 0 -1 -1 -1 -2 -2 -2 -2 -2 -3 -4 -3 -4 -4 -4 -4 -4 -4 -4 -4 -5 -5 -5 -3 -3 -3 -4 -4 -4 -3 -3 -2 -2 -1 -2 -1 0 1 -1 -1 -2 -2 -2 -1 -2 -2 -3 -2 -1 -1 -1 -2 -1
-1 -1 -1 -1 -2 -2 -2 -3 -3 -3 -4 -4 -3 -3 -4 -4 -4 -4 -4 -5 -4 -5 -4 -3 -4 -3 -4 -4 -3 -3 -3 -3 -1 -1 -1 -1 -0 -0 -1 -2 -2 -3 -3 -3 -2 -2 -3 -3 -3 -2 -2 -1 -2 -2
-1 -1 -1 -2 -2 -2 -3 -3 -4 -3 -3 -3 -4 -4 -4 -4 -4 -4 -5 -4 -4 -3 -2 -4 -3 -3 -3 -4 -3 -3 -3 -3 -2 -2 -1 1 -0 -1 -1 -2 -2 -3 -4 -4 -3 -3 -3 -3 -3 -3 -2 -2 -2 -2
-1 -2 -2 -2 -2 -3 -3 -3 -3 -3 -3 -3 -3 -4 -4 -5 -6 -6 -6 -3 -5 -2 -2 -2 -2 -2 -2 -3 -3 -2 -2 -4 -3 -5 -2 -0 -1 -1 -2 -2 -3 -3 -4 -4 -3 -3 -3 -4 -3 -3 -3 -2 -2 -2
-2 -2 -2 -2 -2 -3 -3 -3 -3 -3 -3 -4 -4 -7 -4 -9 -5 -6 -4 -3 -2 -2 -2 -3 -2 -2 -1 -1 -1 -1 -2 -3 -3 -3 -0 -1 -2 -2 -2 -3 -3 -3 -4 -4 -4 -4 -4 -4 -4 -3 -3 -2 -2 -2
-2 -2 -2 -2 -2 -3 -3 -3 -3 -4 -4 -4 -4 -6 -7 -4 -4 -3 -2 -3 -2 -2 -2 -3 -2 -2 -2 -2 -3 -2 -3 -4 -1 -2 -2 -2 -2 -3 -2 -3 -3 -3 -3 -3 -3 -4 -4 -4 -4 -4 -3 -3 -3 -2
-2 -2 -2 -2 -2 -3 -3 -3 -4 -4 -4 -4 -4 -3 -3 -4 -5 -3 -2 -2 -1 -2 -2 -3 -2 -2 -2 -2 -2 -3 -1 -2 -3 -5 -2 -3 -3 -3 -3 -3 -3 -3 -3 -3 -3 -3 -4 -4 -4 -4 -4 -4 -3 -3
-1 -2 -2 -2 -2 -3 -3 -4 -3 -3 -3 -4 -3 -4 -4 -5 -6 -3 -1 -0 -1 -3 -4 -3 -3 -2 -3 -1 -1 -1 -1 -2 -3 -3 -3 -3 -4 -4 -4 -4 -4 -3 -3 -3 -3 -3 -3 -4 -4 -4 -4 -4 -4 -3
-2 -2 -2 -3 -3 -3 -4 -4 -4 -4 -4 -3 -4 -3 -3 -3 -2 -1 -1 -1 -2 -2 -2 -2 -3 -2 -3 -2 -3 -3 -3 -3 -3 -3 -4 -4 -4 -4 -5 -4 -4 -4 -4 -4 -4 -4 -4 -4 -4 -5 -5 -5 -4 -4
-2 -2 -3 -3 -4 -4 -4 -4 -4 -4 -3 -3 -3 -3 -3 -2 -1 -0 -0 -1 -2 -2 -2 -3 -3 -2 -4 -3 -2 -2 -2 -3 -4 -4 -5 -5 -5 -5 -5 -5 -5 -5 -5 -5 -5 -5 -5 -5 -5 -5 -6 -5 -5 -5
-2 -2 -2 -3 -4 -4 -4 -3 -4 -4 -3 -3 -3 -2 -1 -1 -0 -0 -0 -1 -2 -3 -3 -2 -3 -5 -5 -5 -3 -3 -3 -4 -4 -5 -5 -6 -6 -6 -6 -6 -7 -7 -6 -6 -6 -6 -6 -5 -5 -6 -6 -6 -6 -6
-2 -2 -2 -3 -4 -4 -3 -3 -3 -3 -2 -2 -1 -1 -1 -0 -1 -1 -2 -3 -3 -4 -5 -7 -7 -7 -7 -7 -7 -7 -7 -7 -8 -8 -9 -8 -7 -7 -7 -8 -8 -7 -7 -7 -8 -7 -7 -7 -7 -8 -7 -7 -6 -6
-3 -3 -3 -3 -3 -3 -4 -3 -2 -2 -2 -1 -2 -2 -2 -2 -1 -1 -3 -4 -6 -7 -6 -7 -7 -7 -7 -7 -7 -7 -8 -8 -9 -9 -10 -9 -9 -9 -9 -9 -9 -9 -9 -9 -9 -9 -9 -9 -8 -8 -8 -8 -7 -7
-4 -3 -3 -3 -4 -4 -3 -3 -3 -2 -4 -3 -2 -3 -4 -2 -2 -3 -6 -6 -7 -7 -7 -7 -7 -8 -8 -9 -9 -9 -9 -10 -10 -10 -10 -11 -10 -10 -10 -10 -11 -11 -11 -11 -10 -10 -10 -9 -9 -9 -8 -8 -8 -8
-4 -3 -4 -3 -4 -5 -3 -3 -3 -3 -3 -4 -5 -6 -5 -3 -3 -5 -6 -8 -8 -8 -8 -9 -9 -9 -10 -10 -11 -11 -11 -11 -12 -11 -12 -12 -11 -11 -11 -11 -12 -11 -12 -11 -11 -10 -10 -10 -10 -9 -9 -8 -8 -8
-3 -4 -4 -6 -4 -5 -9 -10 -9 -6 -8 -7 -6 -8 -8 -4 -8 -8 -9 -9 -9 -9 -10 -10 -10 -10 -11 -11 -12 -12 -12 -12 -12 -12 -12 -12 -12 -11 -11 -11 -12 -12 -12 -12 -12 -12 -11 -11 -11 -10 -10 -10 -9 -9
-8 -4 -8 -6 -8 -7 -7 -9 -11 -10 -10 -10 -9 -6 -6 -10 -9 -10 -9 -9 -10 -11 -10 -11 -11 -11 -11 -12 -12 -12 -12 -12 -12 -12 -12 -13 -13 -13 -13 -13 -13 -13 -14 -14 -14 -14 -13 -13 -12 -12 -11 -10 -10 -10
-10 -9 -5 -4 -4 -4 -8 -6 -6 -9 -10 -12 -11 -11 -11 -10 -12 -10 -11 -11 -11 -11 -11 -11 -12 -12 -12 -12 -12 -13 -13 -14 -14 -14 -14 -14 -14 -14 -15 -15 -15 -15 -15 -15 -15 -15 -14 -14 -13 -13 -12 -11 -11 -10
-4 -5 -8 -5 -5 -5 -14 -14 -12 -12 -12 -7 -8 -12 -13 -12 -12 -11 -11 -12 -12 -12 -12 -12 -12 -12 -12 -13 -13 -14 -14 -14 -14 -14 -15 -15 -15 -15 -16 -16 -16 -16 -15 -15 -15 -15 -14 -14 -14 -13 -12 -12 -11 -10
-5 -5 -5 -8 -7 -7 -7 -10 -10 -6 -7 -7 -12 -11 -10 -11 -11 -11 -12 -13 -13 -12 -12 -12 -12 -12 -12 -13 -14 -14 -14 -14 -15 -16 -17 -17 -16 -16 -16 -16 -16 -16 -16 -15 -15 -15 -14 -14 -14 -13 -12 -12 -11 -11
-5 -5 -6 -10 -14 -12 -6 -6 -6 -6 -7 -7 -7 -9 -11 -12 -12 -13 -13 -13 -13 -12 -12 -13 -13 -13 -13 -13 -13 -13 -14 -15 -16 -17 -17 -17 -17 -17 -16 -16 -16 -16 -16 -16 -15 -14 -14 -13 -13 -12 -12 -11 -11 -10
-6 -6 -7 -8 -10 -6 -6 -6 -7 -7 -7 -8 -10 -11 -11 -13 -13 -13 -13 -13 -13 -13 -13 -13 -13 -14 -14 -14 -15 -15 -15 -15 -16 -17 -17 -17 -17 -16 -17 -17 -17 -16 -16 -16 -15 -15 -14 -14 -13 -13 -12 -11 -10 -9
-7 -7 -7 -13 -8 -7 -7 -7 -7 -8 -9 -11 -11 -12 -13 -13 -13 -14 -13 -13 -14 -14 -14 -14 -14 -14 -14 -15 -15 -16 -17 -16 -16 -17 -17 -17 -17 -17 -17 -17 -17 -16 -16 -16 -15 -15 -14 -14 -13 -12 -11 -11 -10 -10
-8 -8 -8 -8 -8 -8 -9 -8 -9 -11 -11 -11 -12 -12 -13 -12 -13 -13 -13 -13 -14 -14 -14 -14 -14 -14 -14 -15 -15 -16 -17 -17 -17 -17 -17 -17 -17 -17 -17 -17 -16 -16 -16 -15 -15 -15 -14 -14 -13 -12 -12 -11 -11 -10
Height
1410 1413 1417 1419 1424 1426 1428 1429 1431 1435 1437 1440 1444 1449 1455 1458 1459 1461 1463 1464 1469 1470 1469 1471 1472 1474 1475 1479 1483 1481 1483 1479 1479 1486 1484 1483 1476 1463 1461 1453 1451 1448 1445 1444 1436 1438 1412 1391 1393 1396 1388 1376 1377 1372
1409 1413 1416 1419 1421 1424 1426 1428 1432 1435 1438 1441 1445 1448 1453 1456 1459 1463 1463 1465 1466 1469 1469 1467 1467 1468 1470 1473 1475 1476 1477 1475 1473 1479 1483 1479 1473 1465 1461 1464 1444 1448 1446 1452 1438 1424 1404 1401 1401 1393 1387 1381 1374 1371
1409 1411 1413 1416 1418 1419 1423 1426 1429 1434 1438 1441 1445 1448 1451 1455 1459 1464 1463 1464 1465 1466 1465 1463 1460 1462 1464 1466 1469 1472 1469 1470 1468 1469 1470 1471 1469 1462 1461 1450 1446 1440 1437 1436 1434 1409 1407 1398 1389 1388 1386 1381 1373 1368
1410 1411 1412 1414 1414 1415 1417 1421 1426 1430 1436 1439 1444 1449 1451 1455 1462 1463 1463 1465 1466 1467 1466 1460 1456 1457 1458 1459 1460 1460 1461 1463 1465 1466 1465 1465 1462 1454 1451 1447 1443 1441 1437 1424 1421 1412 1404 1390 1388 1387 1379 1373 1370 1366
1411 1412 1413 1413 1413 1413 1414 1415 1421 1426 1432 1436 1444 1448 1452 1457 1460 1462 1463 1464 1465 1468 1467 1458 1453 1448 1448 1450 1451 1453 1455 1457 1461 1462 1459 1458 1453 1452 1444 1440 1429 1429 1425 1422 1411 1408 1407 1395 1387 1383 1379 1374 1369 1365
1413 1414 1414 1412 1412 1412 1411 1411 1417 1423 1430 1437 1442 1447 1452 1456 1460 1464 1464 1464 1464 1466 1467 1462 1451 1444 1444 1444 1445 1446 1447 1451 1455 1454 1451 1449 1446 1447 1443 1431 1420 1417 1417 1416 1410 1404 1401 1393 1387 1383 1377 1371 1363 1357
1418 1419 1417 1416 1415 1414 1413 1414 1418 1424 1431 1439 1444 1449 1453 1456 1460 1465 1467 1466 1465 1466 1467 1462 1451 1444 1442 1441 1441 1441 1442 1444 1446 1446 1442 1440 1439 1441 1437 1427 1409 1414 1412 1407 1405 1397 1393 1391 1386 1381 1375 1368 1362 1356
1424 1424 1422 1421 1420 1419 1418 1421 1424 1429 1435 1442 1447 1451 1455 1459 1462 1464 1465 1466 1466 1467 1466 1464 1453 1446 1441 1439 1439 1438 1438 1438 1438 1436 1434 1433 1435 1435 1428 1410 1410 1409 1405 1403 1399 1397 1395 1390 1384 1378 1374 1368 1360 1355
1430 1431 1429 1429 1428 1428 1428 1430 1434 1439 1444 1448 1451 1455 1459 1461 1463 1464 1464 1464 1465 1470 1465 1461 1453 1448 1441 1439 1439 1437 1433 1433 1430 1428 1427 1428 1426 1422 1410 1409 1408 1406 1404 1401 1398 1395 1391 1385 1382 1379 1374 1368 1363 1357
1437 1436 1437 1436 1436 1436 1437 1439 1442 1445 1448 1453 1457 1459 1461 1461 1462 1464 1463 1464 1463 1463 1462 1454 1449 1445 1444 1439 1437 1435 1430 1427 1421 1418 1419 1420 1414 1408 1407 1407 1403 1402 1400 1397 1393 1390 1387 1384 1382 1378 1374 1370 1366 1362
1444 1444 1444 1444 1444 1445 1446 1448 1451 1454 1456 1458 1459 1459 1460 1461 1462 1462 1462 1462 1460 1457 1453 1444 1442 1439 1436 1435 1433 1431 1426 1423 1414 1412 1414 1410 1407 1405 1407 1406 1403 1401 1398 1397 1395 1393 1390 1387 1383 1379 1374 1371 1367 1362
1451 1451 1451 1451 1452 1453 1454 1455 1457 1458 1458 1459 1459 1460 1460 1461 1461 1462 1460 1458 1456 1450 1445 1442 1438 1434 1431 1430 1430 1427 1424 1421 1415 1413 1411 1401 1406 1407 1407 1406 1403 1401 1399 1397 1395 1393 1390 1386 1383 1379 1375 1371 1366 1362
1455 1455 1456 1456 1457 1457 1458 1458 1459 1458 1458 1458 1459 1459 1460 1460 1463 1462 1462 1453 1453 1445 1441 1439 1436 1431 1427 1427 1426 1422 1417 1420 1413 1418 1412 1406 1408 1408 1406 1404 1403 1401 1398 1397 1394 1392 1389 1386 1382 1378 1374 1370 1366 1361
1457 1457 1458 1458 1458 1459 1459 1459 1459 1458 1457 1457 1458 1460 1458 1463 1454 1449 1446 1445 1444 1442 1440 1438 1434 1432 1425 1423 1420 1417 1413 1412 1415 1415 1405 1408 1408 1406 1405 1403 1402 1401 1398 1396 1394 1391 1388 1384 1380 1377 1373 1369 1365 1360
1458 1458 1458 1458 1458 1458 1459 1459 1458 1458 1457 1457 1456 1457 1452 1446 1444 1443 1443 1442 1441 1439 1438 1435 1431 1428 1422 1418 1418 1417 1419 1417 1407 1410 1408 1408 1407 1405 1404 1402 1401 1400 1398 1396 1393 1390 1387 1383 1379 1375 1372 1368 1365 1361
1456 1456 1456 1457 1457 1457 1457 1457 1457 1457 1455 1454 1451 1447 1444 1445 1441 1440 1439 1438 1437 1436 1434 1432 1428 1424 1419 1417 1416 1416 1409 1408 1409 1408 1408 1407 1405 1403 1402 1401 1400 1398 1396 1394 1391 1389 1385 1382 1378 1375 1371 1367 1363 1360
1454 1454 1455 1455 1455 1455 1456 1456 1456 1454 1451 1448 1443 1441 1442 1441 1438 1434 1433 1433 1433 1433 1433 1429 1428 1421 1419 1413 1409 1407 1406 1407 1407 1407 1407 1405 1404 1403 1401 1399 1397 1395 1393 1391 1388 1386 1384 1380 1377 1372 1368 1365 1362 1359
1451 1451 1452 1452 1453 1453 1454 1453 1453 1450 1446 1441 1441 1436 1436 1434 1432 1430 1428 1428 1429 1428 1427 1425 1425 1422 1420 1414 1412 1409 1408 1408 1407 1406 1405 1404 1403 1401 1400 1397 1395 1393 1390 1388 1385 1382 1380 1376 1373 1370 1367 1363 1360 1356
1449 1449 1449 1450 1451 1452 1452 1450 1450 1445 1439 1437 1434 1432 1430 1428 1426 1424 1423 1423 1424 1425 1425 1423 1421 1417 1415 1409 1406 1406 1406 1405 1405 1404 1403 1402 1401 1399 1397 1395 1393 1390 1387 1384 1382 1379 1376 1374 1372 1369 1366 1362 1358 1355
1446 1446 1446 1447 1449 1450 1448 1446 1445 1441 1436 1432 1429 1427 1426 1424 1422 1420 1419 1419 1420 1421 1420 1417 1417 1418 1415 1411 1407 1405 1403 1402 1402 1401 1401 1400 1399 1397 1395 1393 1391 1388 1385 1382 1379 1376 1373 1370 1368 1365 1363 1360 1355 1352
1443 1443 1443 1444 1446 1447 1445 1441 1438 1434 1431 1428 1424 1423 1421 1419 1418 1416 1415 1416 1418 1418 1420 1422 1421 1419 1415 1411 1407 1404 1402 1401 1401 1402 1401 1398 1396 1394 1393 1390 1387 1385 1382 1379 1376 1372 1370 1367 1365 1362 1359 1356 1353 1350
1441 1441 1442 1443 1444 1444 1440 1436 1434 1432 1430 1424 1422 1420 1417 1415 1413 1412 1413 1414 1418 1420 1420 1420 1420 1418 1415 1412 1410 1409 1407 1405 1402 1402 1401 1398 1394 1391 1390 1388 1384 1381 1379 1376 1374 1371 1368 1366 1363 1359 1356 1353 1350 1346
1439 1441 1442 1441 1441 1439 1435 1432 1432 1428 1426 1421 1420 1418 1414 1412 1410 1411 1412 1415 1417 1419 1419 1418 1418 1417 1415 1414 1411 1409 1406 1404 1402 1400 1398 1396 1393 1390 1388 1386 1383 1381 1377 1374 1372 1369 1367 1363 1360 1356 1352 1349 1345 1342
1438 1439 1438 1437 1436 1434 1432 1429 1428 1425 1423 1421 1420 1420 1415 1411 1410 1408 1411 1414 1416 1417 1417 1417 1416 1415 1414 1412 1409 1407 1404 1403 1401 1398 1396 1393 1390 1387 1385 1383 1381 1379 1375 1371 1368 1365 1362 1359 1355 1351 1348 1344 1341 1338
1438 1435 1434 1431 1431 1431 1430 1428 1426 1425 1426 1423 1421 1421 1414 1412 1412 1411 1411 1414 1414 1415 1415 1415 1414 1413 1411 1409 1408 1406 1404 1401 1398 1396 1394 1391 1387 1383 1380 1378 1375 1372 1370 1365 1361 1358 1355 1352 1348 1345 1342 1339 1336 1332
1433 1427 1427 1425 1426 1428 1427 1430 1429 1426 1425 1425 1421 1416 1414 1414 1414 1413 1412 1413 1413 1414 1413 1413 1412 1410 1409 1408 1406 1403 1401 1398 1395 1392 1390 1388 1384 1381 1376 1372 1367 1364 1364 1361 1357 1353 1348 1345 1341 1338 1334 1331 1329 1327
1429 1422 1421 1422 1422 1422 1423 1422 1422 1423 1425 1426 1420 1419 1419 1419 1418 1413 1413 1413 1413 1413 1412 1411 1411 1409 1407 1405 1403 1401 1398 1395 1392 1389 1386 1382 1380 1377 1374 1369 1364 1360 1356 1353 1350 1347 1343 1339 1334 1331 1327 1324 1322 1320
1418 1417 1419 1419 1420 1420 1422 1423 1423 1423 1420 1418 1418 1421 1421 1417 1414 1412 1411 1411 1412 1411 1411 1410 1408 1406 1404 1402 1399 1396 1393 1390 1386 1382 1378 1376 1373 1370 1367 1364 1360 1355 1351 1347 1343 1340 1337 1333 1328 1324 1321 1317 1313 1312
1413 1414 1415 1416 1417 1418 1417 1417 1415 1414 1414 1415 1416 1415 1411 1409 1409 1409 1410 1410 1410 1410 1409 1408 1406 1403 1401 1398 1395 1392 1389 1385 1379 1373 1370 1366 1363 1362 1360 1356 1351 1347 1343 1339 1336 1333 1330 1326 1322 1318 1314 1310 1307 1304
1410 1411 1413 1414 1416 1415 1411 1412 1411 1411 1411 1411 1411 1408 1407 1407 1407 1408 1408 1408 1408 1407 1406 1404 1402 1399 1395 1391 1388 1385 1385 1382 1378 1375 1370 1365 1361 1357 1353 1349 1344 1341 1337 1333 1329 1324 1321 1318 1314 1311 1307 1303 1300 1297
1407 1409 1410 1410 1410 1408 1408 1409 1408 1407 1406 1404 1403 1403 1404 1404 1405 1405 1406 1406 1405 1404 1402 1401 1399 1396 1392 1389 1385 1380 1377 1377 1374 1371 1368 1363 1358 1352 1348 1343 1339 1336 1332 1328 1324 1320 1315 1311 1308 1303 1299 1295 1292 1291
1405 1406 1407 1409 1407 1406 1406 1406 1404 1403 1400 1400 1399 1400 1401 1402 1403 1403 1401 1402 1402 1401 1399 1397 1394 1392 1390 1386 1383 1380 1377 1373 1369 1366 1362 1357 1352 1347 1343 1338 1335 1331 1327 1323 1320 1316 1312 1308 1304 1300 1295 1291 1289 1289
1403 1404 1404 1405 1404 1404 1405 1404 1402 1400 1399 1398 1397 1397 1398 1399 1398 1397 1397 1398 1398 1397 1396 1394 1392 1389 1386 1382 1378 1375 1372 1369 1365 1362 1358 1353 1348 1343 1338 1334 1330 1327 1323 1319 1316 1313 1309 1306 1302 1299 1296 1294 1293 1292
Wind_Speed
15 13 12 12 12 12 12 11 10 11 11 11 10 9 9 8 7 7 7 7 8 4 5 6 6 7 6 5 3 2 4 2 2 1 2 3 2 3 3 5 10 5 5 3 3 3 7 20 27 7 15 24 21 22
10 9 9 10 10 10 11 12 13 12 13 13 12 10 10 7 6 6 5 6 8 7 5 4 6 14 22 19 14 8 6 4 4 2 1 0 2 2 5 3 3 4 4 3 4 6 26 43 30 36 30 23 26 22
5 4 5 8 11 14 17 18 17 16 17 16 14 11 12 9 7 6 3 3 3 4 11 16 17 7 15 21 23 11 9 12 9 13 6 3 5 2 3 4 5 4 4 5 10 5 15 32 43 26 23 27 33 27
2 2 4 8 11 13 17 19 20 20 20 19 16 14 11 12 9 5 4 3 4 2 2 9 10 16 23 18 19 24 30 13 15 10 6 3 2 7 3 4 7 9 10 9 11 17 23 24 27 35 41 42 35 35
10 8 7 5 4 4 7 13 17 22 20 18 19 16 14 11 10 8 6 6 4 3 3 12 27 8 3 9 17 21 26 28 20 8 5 3 4 4 7 7 12 8 5 3 8 19 16 28 44 42 37 31 36 33
18 16 14 12 10 8 5 4 15 16 20 20 18 17 14 12 12 7 3 5 9 7 4 4 9 17 8 3 10 16 21 22 16 7 5 7 16 4 3 4 12 24 18 19 15 32 41 44 31 24 27 30 31 30
24 22 20 18 15 15 15 16 18 16 15 20 17 17 17 15 10 5 1 2 5 3 3 6 7 5 15 11 6 12 16 15 15 6 7 8 6 11 3 11 27 31 34 32 29 31 16 14 22 24 26 29 28 20
25 25 26 25 25 22 21 20 19 18 19 20 14 15 16 15 12 10 6 1 2 4 3 2 4 6 4 4 3 4 7 12 10 7 4 4 5 8 5 13 18 20 14 14 16 17 16 21 17 22 25 29 29 30
24 23 23 24 25 26 26 27 26 24 22 18 17 15 13 7 4 3 6 11 13 6 3 3 2 3 4 3 4 6 7 2 6 4 4 7 3 5 9 10 12 18 15 18 16 14 20 22 21 23 26 27 28 29
26 25 24 24 24 24 23 22 20 18 19 21 17 3 3 4 5 1 2 2 4 6 8 4 6 5 5 4 3 3 5 2 3 5 7 3 3 16 16 16 6 11 10 12 14 18 22 22 22 24 24 25 22 23
24 25 26 27 28 28 27 25 23 22 18 3 1 2 5 5 3 2 2 4 4 3 6 7 11 7 7 4 3 4 1 2 3 3 3 4 2 2 5 8 12 15 15 13 10 12 17 17 17 20 22 22 23 23
17 17 19 20 19 18 19 18 10 4 2 2 2 1 3 3 2 2 2 2 3 3 4 4 7 10 6 8 3 3 3 1 3 5 2 0 1 4 6 9 13 12 14 12 11 13 17 19 16 16 19 22 22 20
10 10 11 12 11 9 8 6 5 4 2 1 1 1 1 2 0 4 3 2 2 3 4 8 8 4 3 8 5 2 3 4 3 1 2 1 9 8 7 10 10 12 13 13 14 15 16 20 19 16 19 19 21 20
5 4 4 5 3 0 2 4 6 8 3 2 3 1 3 3 5 4 3 3 5 7 16 17 7 4 4 3 2 3 3 2 3 1 2 2 9 9 9 9 10 12 14 16 17 19 19 19 21 20 17 18 21 21
2 2 2 4 5 6 7 9 10 9 3 2 3 3 6 8 7 6 9 7 8 12 14 11 7 6 3 3 2 1 4 3 2 2 0 5 8 9 11 8 8 12 14 16 17 18 20 21 22 23 21 20 20 19
3 4 5 6 5 5 6 6 7 7 3 3 5 4 7 4 6 8 8 11 11 10 13 6 3 3 3 2 2 4 2 2 1 1 3 5 9 11 10 7 7 9 13 16 17 19 20 20 22 23 23 20 20 19
5 6 6 6 6 7 3 4 5 4 4 4 6 10 15 13 13 17 11 10 9 4 2 1 2 4 3 3 2 1 2 1 2 3 1 5 8 10 10 8 9 10 14 16 14 17 19 19 20 22 24 22 21 19
5 7 9 9 6 4 4 5 4 5 6 9 6 8 13 15 15 16 13 12 8 4 3 3 2 2 3 3 3 1 2 3 3 3 3 6 8 10 10 11 11 12 14 15 15 16 16 18 20 21 25 24 21 20
6 8 9 7 6 3 3 4 5 4 8 10 14 18 15 14 16 16 15 10 11 8 3 3 4 3 3 4 4 5 7 9 5 4 5 6 8 9 9 11 12 13 15 17 17 18 18 17 17 18 23 25 25 22
9 8 10 13 12 4 4 4 6 5 5 5 8 10 9 9 13 14 14 9 14 6 5 2 2 10 11 18 15 14 14 12 9 7 6 4 9 10 11 13 15 17 19 19 19 18 20 21 17 14 19 22 26 23
7 6 6 10 14 13 5 4 6 6 6 6 8 9 6 11 14 11 7 3 6 3 3 7 12 14 16 15 13 13 13 9 9 6 7 13 13 14 15 16 18 18 19 19 21 21 21 20 20 22 20 21 21 23
7 7 5 9 5 6 7 7 6 5 5 8 10 8 6 4 8 5 6 3 3 2 3 3 6 10 13 16 16 15 13 11 10 10 12 15 16 18 19 18 19 19 18 17 17 19 19 18 21 21 21 20 21 22
9 8 4 6 5 5 5 5 5 4 2 3 6 2 3 3 3 3 4 4 4 3 3 4 4 6 8 8 9 11 13 14 13 13 14 15 16 17 18 17 14 16 19 18 19 20 22 21 21 22 23 22 21 22
8 4 4 5 8 4 3 3 4 3 3 2 1 4 4 3 4 1 3 3 5 4 3 6 8 8 6 6 9 11 14 13 11 11 12 15 20 21 18 17 17 19 20 22 24 25 25 24 25 27 26 25 24 23
4 5 5 5 5 2 1 3 3 1 2 2 1 3 3 4 1 0 3 4 5 2 3 7 10 9 8 9 9 10 13 16 16 17 16 18 23 25 25 24 25 25 23 26 28 28 28 28 27 27 28 29 27 25
3 7 5 7 3 4 4 1 2 3 1 2 3 4 4 2 1 2 2 3 3 1 6 10 11 10 8 9 12 15 17 18 20 21 22 22 22 22 23 27 32 31 28 27 26 27 29 29 29 28 28 27 26 26
3 5 5 6 3 3 1 2 2 2 2 4 2 3 3 2 3 0 4 2 2 3 6 9 9 10 11 13 15 16 18 20 22 24 26 27 23 20 20 22 26 31 29 26 23 23 26 27 28 28 28 28 27 26
7 5 5 7 5 4 4 1 2 4 3 3 0 2 4 5 4 3 5 5 4 5 7 8 10 12 15 17 18 20 21 23 27 29 29 28 25 20 18 22 27 28 25 24 22 21 22 24 26 26 27 28 29 25
4 4 6 1 3 4 6 6 5 4 5 5 4 3 3 4 5 6 6 5 4 5 8 11 13 14 16 17 17 18 19 22 26 27 28 32 31 27 26 30 30 26 23 23 21 21 23 23 23 24 24 25 25 25
5 9 4 3 4 4 4 8 4 4 6 9 13 10 6 6 8 9 7 4 3 6 8 10 14 18 21 22 24 24 20 18 16 18 25 28 30 32 34 32 28 25 23 23 25 26 24 21 21 22 23 23 22 21
6 8 3 4 4 3 6 8 9 12 14 11 10 10 9 8 12 10 7 3 5 8 12 14 14 16 20 21 23 26 27 22 20 20 19 25 30 31 29 28 26 24 23 24 26 26 25 24 24 25 24 21 17 14
7 7 6 2 3 3 5 4 5 6 6 6 6 6 7 8 8 10 11 6 7 9 13 15 17 19 18 19 20 19 20 21 22 24 26 27 29 28 27 25 24 24 24 24 23 21 20 21 22 21 17 11 6 3
3 4 4 2 1 1 1 4 3 5 2 3 4 6 9 8 8 8 7 7 7 8 12 16 17 18 19 21 23 22 21 21 22 23 24 26 26 25 23 22 22 22 21 20 19 18 18 16 15 12 9 7 6 5
Wind_Direction
141 147 158 166 178 184 190 194 192 186 178 178 183 189 184 193 186 189 188 201 208 200 227 222 230 195 165 188 156 232 349 251 42 92 178 249 201 256 294 296 294 285 310 306 305 297 283 350 339 355 312 301 306 318
147 167 185 199 208 216 219 215 211 200 190 194 197 190 190 198 202 205 204 223 229 236 251 260 249 244 241 252 261 216 218 197 222 93 292 338 301 290 275 269 261 269 184 231 231 259 295 298 289 289 298 316 316 300
139 185 216 234 234 229 225 223 216 208 201 200 202 201 197 201 206 216 224 225 235 283 285 268 267 271 256 253 250 233 247 216 216 225 192 223 240 169 225 251 273 270 283 261 312 272 280 291 296 292 316 321 321 323
74 326 283 267 262 254 242 229 222 215 208 204 207 205 200 203 217 223 255 277 275 291 292 284 268 274 284 264 248 242 242 237 242 218 211 224 238 209 238 244 258 261 291 266 268 282 299 289 308 317 320 327 328 327
81 77 63 35 2 314 266 235 226 215 203 197 202 207 204 204 209 210 242 265 270 264 273 286 300 309 336 291 247 247 244 240 230 237 227 229 231 248 248 257 266 231 224 261 280 290 294 292 301 314 312 315 315 315
75 65 58 60 55 43 22 206 200 189 200 187 188 185 187 193 203 202 292 270 250 233 311 307 303 299 331 312 248 242 237 229 213 210 215 230 225 227 265 270 260 258 254 262 283 286 286 287 304 317 318 330 329 315
75 70 69 68 70 78 84 109 136 159 174 179 176 177 180 195 190 172 264 13 115 137 300 304 296 284 318 312 267 239 225 214 216 219 223 224 209 207 260 271 267 282 287 288 288 291 285 320 319 328 337 347 351 357
81 77 77 76 75 81 93 104 114 126 142 156 164 166 185 196 185 223 243 270 255 349 271 279 274 308 293 283 276 218 198 202 216 222 227 189 194 207 250 255 273 280 297 300 305 330 327 325 338 339 340 345 350 353
82 84 83 84 85 89 94 101 109 120 129 135 150 148 134 168 197 249 236 249 260 254 278 256 261 287 304 327 300 287 231 225 218 215 213 171 199 220 244 278 303 301 304 302 315 334 338 351 349 342 342 344 348 349
84 85 87 91 94 97 102 107 113 119 120 124 122 123 177 181 203 257 238 224 213 207 219 256 220 254 250 250 259 253 220 226 240 210 161 214 257 251 276 319 26 27 9 356 353 348 349 344 342 341 343 341 344 349
87 91 91 92 93 96 100 103 108 114 118 108 99 105 132 155 224 206 242 209 215 261 223 252 233 250 257 223 231 234 254 244 260 136 198 192 226 58 47 19 7 358 352 351 343 334 340 341 333 338 340 343 344 351
90 90 93 97 100 105 111 111 106 92 78 101 76 158 174 183 200 238 235 249 218 254 238 234 265 257 243 212 239 226 249 249 258 157 237 133 110 65 33 25 9 8 359 359 355 344 344 343 343 335 339 343 343 345
99 106 114 112 103 99 103 86 54 28 356 274 222 175 207 219 259 177 236 244 256 231 258 307 306 282 247 209 234 245 238 227 136 63 205 79 44 32 26 16 19 5 18 14 5 355 346 348 355 347 342 344 346 344
104 125 158 181 188 120 13 345 347 351 328 234 218 273 208 252 233 205 193 198 250 272 298 307 291 269 287 216 243 256 256 13 340 3 76 25 359 359 0 2 20 13 8 6 2 357 353 345 342 346 345 344 341 345
244 233 227 232 246 268 286 300 314 323 294 247 230 241 222 236 263 261 262 263 269 298 304 297 275 243 255 261 209 327 341 262 243 199 161 341 357 348 346 342 9 1 355 354 352 352 352 350 348 340 343 339 340 342
279 273 247 220 240 262 274 285 294 303 243 233 232 246 241 270 271 251 249 266 283 275 303 259 256 273 266 232 213 226 261 251 238 230 352 5 4 9 1 345 351 343 345 345 344 343 342 343 344 342 341 336 339 339
259 246 225 238 244 269 258 271 290 236 244 227 243 244 256 274 257 272 275 270 287 277 262 261 267 238 302 268 249 267 331 24 75 38 85 346 347 348 332 340 341 337 333 330 332 340 339 338 336 340 342 341 334 331
265 243 232 246 248 232 224 226 239 247 249 242 241 260 241 250 269 278 279 268 256 224 212 237 282 260 252 265 286 231 250 256 284 305 310 334 341 337 334 337 337 338 338 337 333 330 329 332 338 343 342 340 332 333
278 247 244 219 209 213 234 232 221 260 249 257 259 268 268 271 285 289 288 275 233 226 240 242 241 231 240 249 245 268 263 253 246 283 282 314 326 333 333 330 333 334 336 336 333 329 324 320 326 332 333 335 337 328
285 255 241 231 212 224 244 224 218 248 254 243 249 257 262 267 284 291 291 261 219 206 225 228 359 332 314 315 304 292 296 263 238 241 229 325 340 341 337 335 334 334 333 333 331 331 327 328 331 324 325 327 329 331
273 247 223 213 211 216 266 237 235 241 265 253 271 271 264 279 281 280 293 197 181 43 51 37 45 44 45 51 54 60 55 57 53 34 350 339 344 341 338 337 333 335 337 339 335 334 332 337 337 333 323 323 326 323
233 203 196 184 208 214 255 237 245 286 262 261 281 279 258 253 268 263 163 116 89 100 114 42 33 29 24 22 20 19 21 14 13 2 349 343 346 347 343 343 340 344 347 352 345 342 340 334 322 329 330 316 321 323
194 195 213 217 217 227 251 232 238 238 250 275 314 284 273 272 261 191 90 97 122 117 105 68 29 0 354 356 351 350 351 355 350 344 343 343 347 347 341 341 341 339 335 334 327 328 321 322 324 328 328 327 326 321
180 201 221 217 213 252 257 240 235 263 274 293 353 307 298 267 309 81 113 116 134 150 79 28 5 360 346 347 341 347 352 357 354 357 354 345 347 346 342 339 328 327 327 319 316 313 312 314 313 316 320 324 326 324
210 218 209 238 207 233 311 314 309 319 258 264 285 284 282 309 326 55 151 151 145 119 10 359 356 350 343 340 346 356 357 357 352 346 346 340 334 330 329 327 327 326 328 322 320 319 317 315 313 311 308 310 314 317
216 206 167 203 209 176 205 211 225 226 190 277 256 300 319 29 316 237 105 117 170 333 345 348 347 346 345 343 336 335 336 336 333 331 332 334 331 324 317 317 318 316 322 318 312 310 311 315 315 314 310 306 306 310
238 249 207 210 206 180 324 255 244 128 221 219 272 333 23 285 256 170 153 138 216 302 328 332 327 325 322 319 317 318 319 319 320 320 319 320 323 320 311 308 315 318 320 314 309 306 308 312 313 312 310 305 304 305
235 205 172 179 185 197 156 99 196 219 228 202 250 261 200 208 232 192 203 224 264 298 313 313 310 311 312 312 310 310 314 316 315 315 314 316 330 328 326 324 323 321 315 311 311 308 310 313 312 311 309 307 305 307
214 189 170 137 162 205 218 195 222 216 188 190 167 245 234 214 229 226 219 235 271 294 293 297 305 310 313 311 314 315 324 328 329 329 329 331 337 342 337 329 325 325 323 317 316 317 318 316 313 310 308 307 306 303
193 183 162 166 150 223 235 208 216 220 255 258 262 252 233 223 200 208 205 220 268 301 310 326 334 332 332 330 330 332 344 342 340 335 325 323 323 324 324 326 328 329 327 323 322 323 323 319 314 312 307 302 300 297
162 179 176 192 229 238 226 233 260 280 285 274 259 243 231 199 189 197 204 241 297 321 330 328 333 340 336 333 332 331 333 342 336 329 320 318 318 320 324 325 324 324 323 323 325 325 324 323 322 323 320 315 306 293
186 190 179 195 247 225 277 272 273 254 255 224 208 193 183 187 199 213 220 248 284 306 325 335 338 338 336 332 324 316 315 320 322 322 323 325 326 325 323 322 321 321 322 323 324 324 326 328 329 331 336 350 9 85
178 183 198 239 264 241 303 318 308 316 278 229 231 213 194 197 219 217 219 244 269 306 327 333 338 341 336 334 329 319 315 317 322 324 323 324 326 325 323 324 325 325 325 327 329 330 334 338 345 357 16 31 45 66